Location: Saint Mary
(48.7436°N, 113.4291°W)
Time: 17:45:31
(UTC+00:00)

N. Korean satellite - Visible Passes

Search period start: 24 January 2022 00:00
Search period end: 03 February 2022 00:00
Orbit: 447 x 491 km, 97.3° (Epoch: 23 January)

Date Brightness Start Highest point End Pass type
(mag) Time Alt. Az. Time Alt. Az. Time Alt. Az.
24 Jan 6.4 13:01:50 10° N 13:05:30 81° WNW 13:06:15 54° SSW visible
25 Jan 10.2 01:15:20 10° W 01:16:05 11° W 01:16:50 10° WNW visible
25 Jan 7.7 12:32:46 10° NNE 12:36:17 44° E 12:37:10 36° SE visible
25 Jan 8.1 14:06:43 10° NNW 14:09:06 17° WNW 14:11:14 11° WSW visible
26 Jan 9.1 12:04:05 10° NE 12:06:56 21° E 12:08:05 18° ESE visible
26 Jan 7.3 13:36:51 10° N 13:40:08 32° WNW 13:42:09 18° WSW visible
27 Jan 10.0 11:36:50 10° ENE 11:37:26 10° E 11:38:02 10° E visible
27 Jan 6.4 13:07:23 10° N 13:11:01 70° WNW 13:13:05 24° SSW visible
28 Jan 7.3 12:38:12 10° NNE 12:41:47 52° E 12:44:02 20° S visible
28 Jan 8.3 14:12:25 10° NNW 14:14:32 15° WNW 14:16:38 10° W visible
29 Jan 8.9 12:09:23 10° NE 12:12:24 24° E 12:15:00 12° SE visible
29 Jan 7.5 13:42:23 10° N 13:45:32 28° WNW 13:48:40 10° SW visible
30 Jan 9.9 11:41:28 10° ENE 11:42:54 12° E 11:44:19 10° ESE visible
30 Jan 6.5 13:12:48 10° N 13:16:25 59° WNW 13:19:58 10° SSW visible
31 Jan 7.0 12:43:32 10° NNE 12:47:09 60° E 12:50:44 10° S visible
31 Jan 8.4 14:18:03 10° NNW 14:19:50 13° WNW 14:21:36 10° W visible
01 Feb 8.6 12:14:36 10° NE 12:17:46 27° E 12:20:54 10° SSE visible
01 Feb 7.6 13:47:48 10° NNW 13:50:49 25° WNW 13:53:48 10° WSW visible
02 Feb 9.8 11:46:21 10° ENE 11:48:14 14° E 11:50:06 10° ESE visible
02 Feb 6.7 13:18:07 10° N 13:21:41 51° WNW 13:25:11 10° SSW visible
